Regional Weather Roundup
Issued by NWS

Home | Current Version | Previous Version | Graphics & Text | Print | Product List | Glossary Off
Versions: 1 2 3 4 5 6 7 8 9 10 11 12 13 14 15 16 17 18 19 20 21 22 23 24 25 26 27 28 29 30 31 32 33 34 35 36 37 38 39 40 41 42 43 44 45 46 47 48 49 50

578
ASUS45 KBOU 010307
RWRCO

WEATHER ROUNDUP FOR COLORADO
NATIONAL WEATHER SERVICE DENVER/BOULDER CO
900 PM MDT SAT APR 30 2016

NOTE: "FAIR" INDICATES FEW OR NO CLOUDS BELOW 12000 FEET WITH NO
SIGNIFICANT WEATHER AND/OR OBSTRUCTIONS TO VISIBILITY.

COZ001>005-013-030-031-010400-
...NORTHWEST COLORADO...

CITY           SKY/WX    TMP DP  RH WIND       PRES   REMARKS
CRAIG          MOCLDY    40  22  48 E13       30.06R
HAYDEN         FAIR      36  18  48 E16G22    30.06R
MEEKER         FAIR      41  25  53 E5        30.00R
MOUNT WERNER   NOT AVBL
STEAMBOAT SPGS CLOUDY    34  20  56 NE13G25   30.07R WCI  25
WALDEN         FAIR      30  21  69 NE7       30.14R WCI  23
$$

COZ006>008-011-010400-
...WEST CENTRAL VALLEYS...

CITY           SKY/WX    TMP DP  RH WIND       PRES   REMARKS
GRAND JUNCTION CLOUDY    49  34  56 NE8       29.92R
MONTROSE       FAIR      46  29  51 N3        29.95R
EAGLE          CLOUDY    39  30  70 CALM      30.05R
RIFLE          CLOUDY    46  36  68 CALM      29.97R
DELTA          NOT AVBL
NUCLA          NOT AVBL
$$

COZ017>023-064>068-010400-
...SOUTHWEST COLORADO...

CITY           SKY/WX    TMP DP  RH WIND       PRES   REMARKS
DURANGO        FAIR      40  32  73 CALM      29.89S
CORTEZ         FAIR      38  34  85 SE6       29.88S
PAGOSA SPRINGS FAIR      38  29  70 N3        29.94R
TELLURIDE      FAIR      36  29  75 CALM      29.99R
WOLF CREEK PAS FAIR      21  21 100 E3        30.06S
$$

COZ009-010-012-014-032>034-037-058>063-010400-
...CENTRAL COLORADO...

CITY           SKY/WX    TMP DP  RH WIND       PRES   REMARKS
ASPEN          CLOUDY    38  29  70 CALM      29.98R
BUENA VISTA    FLURRIES  30  25  80 CALM      30.10R
COPPER MTN     NOT AVBL
BERTHOUD PASS  LGT SNOW  10   1  67 NE6       30.08R WCI   1
COTTONWOOD PAS LGT SNOW  27  25  93 SE7       30.09R VSB 1   WCI  19
GUNNISON       MOCLDY    43  25  49 N5        29.97R
KREMMLING      CLOUDY    34  28  80 CALM      30.10R
LEADVILLE      CLOUDY    22  22 100 S14       30.03R WCI   9
SALIDA         CLOUDY    33  29  86 E10       30.16R WCI  25
SUNLIGHT       CLOUDY   N/A N/A N/A NE5       30.07R
WILKERSON PASS CLOUDY   N/A N/A N/A E12G17    30.10R FOG
$$

COZ069>075-010400-
...SAN LUIS VALLEY/SANGRE DE CRISTO MOUNTAINS...

CITY           SKY/WX    TMP DP  RH WIND       PRES   REMARKS
ALAMOSA        CLOUDY    34  27  75 E17       29.96R WCI  23
LA VETA PASS   LGT SNOW  21  19  93 MISG      30.07R VSB 3/4
SAGUACHE       FAIR      37  27  65 N13       29.98R
$$

COZ035-036-038>040-010400-
...NORTHERN COLORADO FRONT RANGE...

CITY           SKY/WX    TMP DP  RH WIND       PRES   REMARKS
DENVER INTL AP LGT SNOW  33  30  88 N14       30.15R FOG     WCI  23
DMNS CITY PARK   N/A     35  33  92 N13       30.18R WCI  26
AURORA         FLURRIES  32  32 100 N13       30.16R WCI  22
FRONT RANGE AP LGT SNOW  32  32 100 N12       30.14R WCI  23
ERIE MUNI ARPT CLOUDY    36  33  91 N8        30.17R
BOULDER MUN AP CLOUDY    36  32  87 N6        30.17R
CENTENNIAL     LGT SNOW  32  32 100 N10       30.15R VSB 1   WCI  24
BROOMFIELD     LGT SNOW  36  32  87 N9        30.16R
FORT COLLINS   FAIR      36  32  87 N16       30.18R
LONGMONT       MOCLDY    39  33  80 N9        30.19R
$$

COZ041-046-047-076>085-087-088-010400-
...PIKES PEAK/PALMER DIVIDE AND SOUTHERN FOOTHILLS...

CITY           SKY/WX    TMP DP  RH WIND       PRES   REMARKS
COLO. SPRINGS  MOCLDY    33  26  75 NW16      30.13R WCI  23
A. F. ACADEMY  LGT SNOW  32  28  86 NW14G20   30.11R FOG     WCI  22
SCHRIEVER AFB  NOT AVBL
ELLICOTT       NOT AVBL
FALCON         CLOUDY    30  26  83 N17G28    30.11R WCI  18
FORT CARSON    MOCLDY    35  27  71 N22G31    30.10R WCI  23
LIMON          MIX PCPN  32  30  92 N32G41    30.08R WCI  17
MONUMENT HILL  LGT SNOW  28  27  93 N16       30.12R WCI  17
TRINIDAD       CLOUDY    33  31  92 SW7       30.12R WCI  27
$$

COZ042>045-048>051-090-091-010400-
...NORTHEAST COLORADO...

CITY           SKY/WX    TMP DP  RH WIND       PRES   REMARKS
GREELEY ARPT   MOCLDY    37  32  81 N10       30.17R
AKRON          CLOUDY    32  30  92 N23       30.07R WCI  19
BURLINGTON     CLOUDY    35  31  85 N21G28    30.01R WCI  24
WRAY           NOT AVBL
STERLING       DRIZZLE   34  34 100 N20       30.08R WCI  22
HOLYOKE        NOT AVBL
FORT MORGAN    DRIZZLE   34  32  91 NW15      30.13R WCI  25
$$

COZ086-089-092>099-010400-
...SOUTHEAST COLORADO...

CITY           SKY/WX    TMP DP  RH WIND       PRES   REMARKS
PUEBLO         CLOUDY    42  28  57 N17G23    30.11R
LA JUNTA       FAIR      38  30  73 N16       30.12R
LAMAR          CLOUDY    41  32  70 N21G26    30.06R
SPRINGFIELD      N/A     37  30  75 NW21G28   30.05R
$$




USA.gov is the U.S. government's official web portal to all federal, state and local government web resources and services.